User: anonymous   Login
Location: Unspecified
(0.0000°N, 0.0000°E)
Time: 07:49:39
(UTC+00:00)
Language:

STARLINK-5536 - Orbit

View from above orbital plane
View from above orbital plane
View from above satellite
View from above satellite

Ground track
Ground track

The orbit is defined by the following mean orbital elements,

1 57062U          26145.34589641 +.00000000 +00000-0 +24699-4 0 00005
2 57062  43.0043  23.2116 0001193 257.6791 102.3928 15.27576887    03
Epoch (UTC): 25 May 2026 08:18:05
Eccentricity: 0.0001193
inclination: 43.0043°
perigee height: 482 km
apogee height: 484 km
right ascension of ascending node: 23.2116°
argument of perigee: 257.6791°
revolutions per day: 15.27576887
mean anomaly at epoch: 102.3928°

The dashed part of the orbit path shows where the satellite is in the earth's shadow,  

DLR